Temp
64 64 64 64 64 64 64 64 64 64 64 64 64 64 63 63 63 63 65 73 72 70 70 70 68 68 67 63 64 61 49 46 51 55 58 64 61 66 66 61 62 66 65 69 65
63 63 64 64 64 64 64 64 64 63 64 64 64 63 63 63 61 65 72 72 71 70 70 67 64 66 59 61 61 54 46 51 57 55 56 60 57 58 61 61 60 63 67 66 64
63 63 63 63 63 64 64 63 63 63 63 63 63 63 63 61 63 67 71 72 71 70 71 71 69 67 57 58 58 56 50 57 62 62 61 60 60 61 58 56 61 62 66 65 64
62 62 62 63 63 63 64 63 63 63 63 63 63 63 62 61 54 67 70 71 70 70 70 68 64 58 55 54 62 52 60 62 62 63 60 59 60 60 58 63 66 66 66 65 67
61 61 61 62 62 63 63 63 63 63 63 63 63 62 61 59 64 69 68 68 68 68 66 64 60 59 53 56 59 54 57 61 62 61 61 61 58 58 59 65 65 67 67 66 65
61 61 61 61 62 62 63 63 63 62 62 62 62 61 58 55 71 72 69 67 70 66 64 64 63 63 58 57 55 57 57 58 60 61 61 58 57 58 62 63 64 65 64 64 65
61 61 61 61 61 62 62 62 62 62 62 63 63 62 59 62 70 70 70 67 68 67 64 65 65 61 58 55 59 58 53 56 58 58 58 58 52 56 62 61 63 63 62 63 65
61 60 60 60 61 61 61 62 61 62 62 63 63 59 58 67 65 69 70 66 68 68 66 65 66 62 58 59 58 52 47 44 56 58 57 55 46 59 63 58 62 64 61 62 55
60 59 60 60 60 60 61 61 61 62 63 63 56 55 56 67 65 66 66 64 65 66 64 71 63 56 56 48 43 44 40 44 50 57 55 52 47 58 62 61 59 59 59 56 53
60 60 60 60 60 60 61 61 62 61 61 64 66 53 60 61 62 64 63 65 61 60 59 57 53 47 46 43 36 41 40 45 45 54 53 49 48 54 58 57 58 54 54 50 50
60 60 60 60 60 61 59 58 56 55 55 57 58 58 63 61 64 61 63 61 61 55 47 51 44 41 47 48 48 46 43 42 46 54 49 49 48 53 57 57 57 52 49 49 48
60 60 60 60 61 61 57 56 54 55 50 61 61 61 64 64 57 58 62 55 54 48 50 46 41 50 52 53 49 45 42 42 47 52 48 47 48 53 58 51 50 48 47 47 47
60 60 60 60 60 58 57 56 61 57 47 56 58 59 58 61 55 55 59 56 50 47 48 42 49 54 53 49 47 45 43 42 44 46 47 43 41 47 48 50 50 49 48 47 45
60 61 60 59 56 60 55 60 60 57 41 50 52 55 58 57 50 58 59 54 51 47 47 46 52 52 47 46 48 41 48 47 45 39 34 43 30 42 46 43 45 44 42 42 43
59 60 59 59 57 57 59 60 58 53 29 52 51 60 57 52 52 50 56 52 47 48 47 46 47 45 44 48 50 45 47 44 42 37 34 36 31 38 44 40 41 41 42 42 43
58 58 59 59 58 59 60 58 55 43 31 46 50 49 49 50 50 51 51 53 52 47 46 47 49 49 49 50 49 49 43 43 39 36 27 36 35 36 41 43 40 42 42 42 42
56 57 57 61 57 61 60 55 43 35 51 44 45 49 47 46 47 48 46 42 42 37 37 44 45 48 50 43 46 44 37 29 26 24 26 36 33 40 46 45 43 40 39 40 40
54 55 56 60 61 60 56 48 34 43 45 50 49 48 45 49 48 47 44 41 46 42 39 36 35 43 46 45 42 40 39 28 19 23 25 34 30 39 41 43 42 41 40 41 40
55 52 53 56 60 58 50 39 38 43 50 48 49 43 42 48 48 45 42 42 47 47 40 37 37 44 46 46 46 39 34 40 31 29 22 29 37 38 41 40 40 39 39 39 41
50 49 50 56 58 53 44 41 42 51 51 51 42 45 38 43 43 42 42 44 44 46 47 42 31 43 43 44 42 41 44 31 31 17 16 27 30 33 36 37 39 38 38 39 41
48 44 51 56 56 46 37 39 46 53 53 47 43 40 41 42 45 39 41 44 45 43 46 42 38 35 41 38 38 37 35 36 35 30 23 18 27 40 40 40 38 38 40 41 41
46 39 50 54 41 43 39 42 49 48 51 47 46 43 41 42 39 40 41 43 47 46 40 42 36 25 34 42 43 42 39 38 31 27 28 28 31 42 41 40 40 40 40 39 39
43 42 50 51 33 36 42 45 47 45 46 46 44 46 46 42 37 41 42 43 46 43 41 42 32 17 25 34 38 34 36 37 36 31 24 21 26 40 39 40 41 39 39 37 37
43 36 41 44 43 38 39 41 41 47 46 47 46 46 42 40 43 38 39 41 43 41 45 44 34 25 23 29 33 29 32 32 33 23 21 25 29 38 41 35 37 37 36 35 35
40 37 40 34 38 40 40 40 38 38 44 45 42 42 40 34 36 36 39 38 40 43 40 39 24 30 31 30 29 28 29 31 27 29 21 29 29 35 38 32 31 33 34 35 35
35 35 37 35 40 38 38 36 38 41 41 38 38 41 41 35 36 28 33 34 34 35 35 36 21 25 15 29 29 26 29 29 29 30 29 31 30 40 32 34 32 34 35 34 34
37 39 37 37 35 35 34 37 38 41 39 42 42 39 36 34 37 37 37 36 35 32 31 29 22 12 10 26 21 13 23 28 30 32 29 24 30 24 27 32 31 31 33 33 34
MSLP
1020.00 1019.96 1019.87 1019.74 1019.63 1019.55 1019.37 1019.16 1019.05 1018.92 1018.73 1018.46 1018.22 1018.02 1017.79 1017.50 1016.97 1016.93 1016.13 1014.89 1014.76 1014.92 1015.15 1015.29 1015.43 1015.36 1015.37 1015.66 1015.67 1016.01 1017.06 1016.95 1015.84 1015.19 1014.61 1013.85 1013.68 1013.37 1013.08 1013.13 1013.10 1013.15 1013.11 1012.89 1013.23
1020.07 1019.94 1019.80 1019.74 1019.64 1019.50 1019.38 1019.16 1018.99 1018.84 1018.64 1018.42 1018.05 1017.84 1017.68 1017.48 1017.08 1016.12 1014.99 1014.69 1014.67 1014.92 1015.29 1015.48 1015.54 1015.51 1015.78 1015.82 1015.96 1016.54 1017.23 1016.49 1015.42 1015.23 1014.94 1014.48 1014.55 1014.40 1014.02 1013.78 1013.63 1013.45 1012.95 1013.09 1013.59
1020.06 1019.99 1019.83 1019.66 1019.54 1019.45 1019.25 1019.05 1018.84 1018.71 1018.51 1018.28 1017.99 1017.73 1017.49 1017.34 1016.93 1015.45 1014.91 1014.84 1014.84 1014.91 1015.17 1015.21 1015.37 1015.61 1015.93 1015.86 1016.08 1016.35 1016.54 1015.91 1015.17 1014.96 1014.90 1014.70 1014.47 1014.32 1014.36 1014.32 1014.03 1013.73 1013.33 1013.25 1013.48
1020.00 1019.96 1019.84 1019.71 1019.52 1019.34 1019.15 1018.93 1018.66 1018.49 1018.27 1018.08 1017.83 1017.58 1017.38 1017.25 1016.68 1015.32 1015.06 1015.02 1015.00 1015.21 1015.35 1015.12 1015.28 1015.64 1015.97 1015.96 1015.64 1016.14 1015.90 1015.71 1015.32 1015.08 1015.17 1014.89 1014.64 1014.62 1014.67 1014.05 1013.50 1013.40 1013.19 1013.03 1013.12
1019.86 1019.78 1019.69 1019.62 1019.45 1019.24 1019.03 1018.81 1018.50 1018.27 1018.13 1017.90 1017.76 1017.55 1017.27 1017.02 1015.86 1015.23 1015.17 1015.22 1015.27 1015.45 1015.51 1015.40 1015.55 1015.68 1015.99 1015.87 1015.89 1015.89 1015.79 1015.63 1015.35 1015.26 1014.94 1014.89 1014.94 1014.95 1014.21 1013.59 1013.28 1013.02 1013.00 1012.97 1013.03
1019.69 1019.64 1019.59 1019.49 1019.37 1019.10 1018.86 1018.67 1018.35 1018.06 1017.82 1017.71 1017.60 1017.60 1017.40 1016.59 1014.89 1015.01 1015.15 1015.35 1015.34 1015.46 1015.42 1015.45 1015.45 1015.55 1015.82 1015.88 1016.08 1016.11 1015.98 1015.82 1015.41 1015.04 1014.78 1015.01 1014.72 1014.93 1013.58 1013.21 1013.43 1013.01 1012.94 1013.04 1013.24
1019.44 1019.43 1019.35 1019.28 1019.21 1018.97 1018.68 1018.41 1018.13 1017.80 1017.59 1017.43 1017.47 1017.55 1016.99 1015.59 1014.84 1014.88 1015.04 1015.11 1015.13 1015.19 1015.32 1015.40 1015.36 1015.58 1015.97 1016.05 1016.01 1016.14 1016.28 1016.05 1014.92 1014.50 1014.84 1014.46 1015.03 1014.56 1013.43 1013.57 1013.67 1013.24 1013.10 1013.26 1013.74
1019.11 1019.17 1019.20 1019.05 1018.94 1018.79 1018.45 1018.14 1017.89 1017.60 1017.34 1017.24 1017.37 1017.42 1016.27 1015.15 1015.10 1015.03 1015.05 1015.14 1015.10 1015.21 1015.39 1015.47 1015.37 1015.78 1016.12 1016.34 1016.47 1016.61 1016.74 1016.49 1014.98 1014.81 1014.56 1014.62 1014.79 1014.08 1013.33 1013.51 1013.41 1013.06 1013.33 1013.83 1015.17
1018.76 1018.85 1018.88 1018.86 1018.75 1018.47 1018.14 1017.85 1017.58 1017.51 1017.41 1017.29 1017.54 1017.21 1016.07 1015.33 1015.31 1015.27 1015.22 1015.33 1015.37 1015.52 1015.60 1015.57 1015.71 1016.32 1016.53 1017.07 1017.67 1017.33 1017.18 1016.60 1015.70 1014.74 1014.95 1015.12 1015.04 1014.25 1013.51 1013.43 1013.42 1013.41 1014.28 1015.42 1016.22
1018.48 1018.48 1018.51 1018.53 1018.41 1018.11 1017.80 1017.36 1017.37 1017.44 1017.41 1017.32 1016.99 1017.18 1016.09 1015.50 1015.49 1015.47 1015.36 1015.42 1015.67 1015.98 1016.19 1016.31 1016.72 1017.15 1017.55 1017.80 1017.99 1017.61 1017.49 1016.92 1016.38 1015.56 1015.03 1015.22 1014.80 1014.71 1014.14 1013.96 1013.18 1014.32 1015.37 1016.67 1017.44
1018.28 1018.17 1018.16 1018.11 1018.09 1017.93 1017.78 1017.52 1017.88 1017.75 1017.26 1016.29 1016.08 1015.69 1015.29 1015.67 1015.62 1015.76 1015.61 1015.63 1015.87 1016.42 1016.84 1016.97 1017.55 1017.63 1017.20 1017.31 1017.26 1017.45 1017.44 1017.25 1016.60 1015.92 1015.71 1015.38 1015.35 1014.55 1014.09 1013.77 1014.15 1015.13 1016.22 1017.29 1018.29
1017.86 1017.86 1017.83 1017.77 1017.71 1017.69 1017.89 1017.67 1017.46 1017.62 1016.93 1015.50 1015.09 1015.22 1015.11 1015.24 1015.76 1015.94 1015.94 1016.19 1016.27 1016.65 1016.98 1017.50 1017.34 1016.53 1016.78 1017.00 1017.14 1017.25 1017.31 1017.10 1016.73 1015.98 1016.01 1015.76 1015.74 1014.58 1013.68 1014.91 1015.59 1016.34 1017.26 1018.10 1018.72
1017.35 1017.46 1017.60 1017.62 1017.54 1017.44 1017.33 1017.55 1017.30 1017.34 1017.47 1015.57 1015.15 1014.94 1015.28 1015.40 1015.65 1015.99 1016.20 1016.10 1016.26 1016.57 1016.68 1016.97 1016.44 1016.35 1016.56 1016.72 1017.04 1017.02 1017.11 1017.00 1017.08 1016.66 1016.41 1016.45 1016.02 1015.12 1016.10 1016.18 1016.82 1017.84 1018.57 1019.12 1019.33
1016.82 1017.00 1017.33 1017.41 1017.88 1016.79 1017.15 1017.29 1017.29 1017.45 1017.49 1015.90 1015.41 1015.23 1015.31 1015.41 1015.97 1016.03 1016.07 1016.33 1016.32 1016.43 1016.80 1016.78 1016.07 1016.19 1016.35 1016.54 1016.94 1017.31 1016.65 1016.92 1017.17 1017.59 1017.71 1017.34 1017.34 1016.22 1016.56 1017.22 1017.83 1018.85 1019.51 1020.00 1020.43
1016.30 1016.59 1016.97 1017.13 1017.07 1016.85 1017.00 1017.15 1017.40 1017.53 1017.25 1015.58 1015.46 1015.38 1015.34 1015.80 1016.15 1016.39 1016.29 1016.26 1016.40 1016.38 1016.65 1016.31 1016.07 1016.14 1016.46 1016.35 1016.39 1016.76 1016.96 1017.46 1017.73 1018.41 1018.71 1018.25 1018.49 1016.48 1016.46 1017.75 1018.95 1019.78 1020.23 1020.91 1021.22
1015.79 1016.13 1016.64 1017.03 1016.97 1016.57 1016.81 1017.10 1017.59 1017.74 1016.25 1015.30 1015.37 1015.33 1015.55 1015.71 1016.06 1016.41 1016.47 1016.53 1016.44 1016.49 1016.48 1016.24 1015.90 1016.00 1015.79 1015.76 1016.16 1016.85 1017.42 1017.85 1018.49 1019.32 1019.47 1018.38 1018.41 1016.97 1016.73 1017.09 1019.13 1020.22 1020.90 1021.46 1021.97
1015.22 1015.51 1016.16 1016.07 1016.01 1016.16 1016.55 1017.24 1017.72 1016.67 1014.66 1015.12 1015.05 1015.18 1015.39 1015.70 1016.15 1016.37 1016.61 1016.72 1016.68 1016.93 1016.98 1016.25 1016.04 1015.76 1015.83 1016.30 1016.77 1017.30 1018.45 1019.11 1019.88 1020.53 1019.79 1018.98 1018.73 1017.26 1016.76 1017.23 1018.54 1020.22 1021.38 1021.84 1022.17
1014.65 1015.36 1015.76 1015.88 1015.78 1016.22 1016.57 1017.28 1016.56 1015.17 1014.53 1014.16 1014.42 1014.93 1015.25 1015.23 1015.69 1016.20 1016.56 1016.61 1016.24 1016.47 1016.89 1016.82 1016.50 1016.20 1016.34 1016.51 1017.01 1017.80 1018.50 1019.73 1020.71 1021.33 1020.48 1019.60 1018.82 1017.94 1018.34 1018.47 1019.65 1020.85 1021.57 1022.11 1022.59
1014.75 1015.55 1015.85 1015.89 1015.83 1016.29 1016.59 1016.26 1015.28 1014.57 1014.00 1014.09 1014.50 1014.92 1015.12 1014.94 1015.35 1015.92 1016.29 1016.25 1015.85 1015.91 1016.48 1016.73 1016.83 1016.60 1016.60 1016.73 1017.23 1018.06 1018.73 1019.40 1020.76 1021.92 1021.79 1019.90 1018.84 1019.18 1019.23 1019.64 1020.47 1021.17 1021.70 1022.22 1022.55
1014.85 1015.65 1016.06 1016.02 1016.01 1016.30 1016.60 1015.66 1014.93 1014.05 1013.77 1013.82 1014.29 1014.40 1014.88 1014.80 1015.18 1015.54 1015.91 1015.58 1015.96 1016.00 1015.87 1016.88 1017.45 1017.11 1017.26 1017.29 1017.78 1018.01 1018.63 1019.75 1021.13 1022.20 1021.99 1020.18 1019.29 1018.84 1019.52 1020.06 1020.75 1021.27 1021.79 1022.27 1022.62
1014.80 1015.92 1016.13 1016.03 1016.47 1016.86 1016.60 1016.04 1014.95 1013.91 1014.10 1014.42 1014.44 1014.59 1014.81 1015.07 1015.20 1015.63 1015.53 1015.56 1015.67 1016.39 1016.54 1017.44 1018.09 1018.38 1018.10 1018.16 1018.21 1018.93 1019.09 1019.78 1020.80 1021.69 1021.41 1020.85 1019.33 1018.34 1018.88 1019.81 1020.65 1021.61 1021.94 1022.23 1022.48
1014.97 1015.76 1015.78 1016.20 1016.70 1016.61 1016.14 1015.57 1014.52 1013.97 1014.05 1014.45 1014.67 1014.85 1015.20 1015.42 1015.66 1016.00 1016.06 1015.89 1016.19 1016.52 1017.50 1017.81 1018.84 1019.45 1019.09 1018.49 1018.45 1018.95 1019.31 1020.03 1021.06 1021.42 1021.33 1020.72 1019.70 1018.75 1019.04 1019.73 1020.62 1021.34 1021.71 1022.14 1022.43
1014.73 1015.76 1016.05 1015.72 1016.21 1016.08 1015.49 1014.92 1014.56 1014.28 1014.36 1014.63 1014.80 1014.80 1015.04 1015.61 1016.36 1016.15 1016.21 1016.85 1016.75 1017.40 1017.89 1018.46 1019.52 1020.61 1020.28 1020.01 1019.70 1019.93 1020.32 1020.81 1021.52 1021.92 1021.78 1021.88 1020.11 1019.46 1019.78 1020.35 1020.53 1021.00 1021.68 1022.23 1022.81
1014.80 1015.85 1016.38 1015.93 1015.39 1015.53 1015.54 1014.74 1014.35 1014.10 1014.40 1014.53 1014.90 1015.39 1015.85 1016.01 1016.11 1016.55 1017.08 1017.57 1017.80 1018.20 1018.87 1019.20 1020.29 1021.05 1020.97 1021.16 1021.39 1021.55 1021.36 1021.60 1022.26 1022.73 1022.25 1021.17 1020.78 1019.80 1019.61 1020.58 1020.78 1021.09 1021.51 1022.42 1022.89
1015.29 1015.14 1014.81 1015.46 1015.31 1015.40 1015.15 1014.65 1014.33 1014.41 1014.55 1014.88 1015.15 1015.21 1016.24 1017.00 1017.12 1017.35 1017.74 1018.54 1019.00 1019.15 1019.62 1020.56 1021.93 1022.51 1022.43 1022.51 1022.68 1022.51 1022.14 1021.96 1022.74 1022.36 1022.57 1020.78 1020.90 1020.00 1020.32 1020.46 1020.84 1021.16 1021.65 1022.24 1022.61
1015.78 1015.37 1015.18 1015.28 1015.17 1015.56 1015.31 1014.58 1014.69 1014.48 1014.76 1015.33 1015.55 1015.53 1016.58 1017.55 1017.79 1018.49 1018.77 1019.24 1019.67 1020.21 1020.47 1021.18 1022.78 1023.87 1024.13 1023.78 1023.77 1023.35 1021.84 1022.28 1022.04 1022.01 1021.52 1021.22 1020.75 1020.66 1020.80 1020.90 1021.33 1021.35 1021.68 1022.09 1022.44
1015.66 1015.19 1014.87 1015.32 1015.32 1015.69 1014.96 1014.27 1014.50 1015.03 1015.37 1015.27 1015.86 1016.75 1017.45 1018.52 1019.00 1019.45 1019.55 1020.24 1020.65 1021.05 1021.69 1022.66 1024.10 1026.04 1026.28 1025.58 1025.07 1024.46 1021.81 1021.35 1021.23 1020.89 1021.10 1021.46 1021.51 1021.74 1021.45 1021.39 1021.58 1021.67 1021.72 1021.98 1022.11
Wind_Speed
5 5 6 6 7 7 8 7 8 9 10 10 11 11 12 13 14 2 4 5 4 12 3 4 1 2 2 1 1 3 5 2 4 5 6 6 5 6 3 2 2 3 5 5 5
5 5 5 6 7 7 8 8 8 9 10 11 11 12 11 12 3 5 1 3 8 9 4 5 3 3 2 2 1 5 4 6 2 1 3 3 1 3 5 7 6 6 7 4 5
5 6 6 6 7 8 8 8 8 9 10 11 12 12 11 9 4 1 2 3 6 7 1 4 2 4 2 2 3 4 5 3 7 5 3 3 7 4 4 6 8 9 7 5 7
5 5 6 7 8 9 10 10 10 10 11 11 11 11 11 2 2 2 4 1 3 3 4 1 1 3 3 3 6 3 8 7 5 4 5 4 1 8 5 14 10 11 9 6 11
6 6 6 7 8 9 10 11 11 11 11 10 9 8 3 1 6 1 5 3 4 3 2 2 2 4 2 3 4 4 5 3 7 8 8 5 5 7 10 14 12 14 11 12 10
6 6 7 7 8 9 10 12 14 13 11 10 7 2 1 3 4 5 6 3 3 1 2 3 2 3 4 4 2 4 5 6 6 10 8 6 7 5 10 7 11 10 10 9 8
7 6 6 7 9 10 11 12 14 13 9 6 4 3 2 10 3 5 5 2 1 1 2 3 0 2 2 4 3 3 5 7 11 8 7 5 3 9 13 8 8 9 8 8 9
7 6 7 7 8 10 11 12 12 8 6 3 5 2 6 1 2 3 3 1 0 1 2 1 4 2 2 2 7 4 1 3 7 5 3 2 7 10 11 5 11 14 9 8 12
8 6 7 8 9 11 12 13 9 4 3 5 2 2 6 1 2 2 3 2 3 3 3 1 4 3 3 4 5 3 4 5 8 2 3 4 6 9 9 9 12 10 8 11 11
8 6 7 8 10 11 13 13 2 4 3 4 3 2 2 3 2 1 2 2 2 3 4 3 4 2 3 4 5 5 4 4 6 6 6 5 10 9 11 10 12 5 8 12 14
9 8 7 7 10 11 7 3 2 1 1 7 4 4 4 2 2 1 1 3 4 1 4 2 5 7 11 9 3 3 4 5 5 9 6 10 8 13 12 11 13 8 13 12 13
10 9 8 8 9 9 1 0 2 1 6 8 10 4 4 4 3 2 1 5 4 5 5 3 7 11 5 5 4 1 4 8 6 4 2 6 13 15 16 5 7 13 11 10 9
11 9 6 7 8 4 2 4 0 2 1 6 0 3 4 4 3 6 6 5 4 6 7 7 8 6 5 4 4 5 5 5 8 3 5 5 7 7 5 11 13 11 11 10 10
12 9 6 1 2 3 2 5 2 2 2 5 2 0 2 2 2 1 3 2 4 8 6 6 5 7 4 4 7 4 3 6 4 3 3 4 6 7 7 7 6 8 7 9 10
11 10 8 8 2 2 5 6 3 3 4 1 3 0 2 3 6 1 1 1 3 4 5 6 7 4 3 7 7 8 2 1 2 3 3 5 1 9 8 3 4 6 9 9 9
13 12 9 3 3 4 6 6 2 4 9 2 3 4 4 2 2 3 1 2 2 1 2 6 1 6 9 4 3 3 2 5 3 3 2 5 7 6 5 8 7 7 9 9 7
12 11 7 1 3 6 5 3 2 5 2 4 4 5 4 5 3 4 4 3 5 3 3 4 5 3 2 2 4 4 4 4 4 2 6 1 0 8 5 7 14 14 9 7 6
15 9 3 2 4 5 3 2 7 7 5 3 4 5 5 7 5 7 4 3 6 2 1 4 6 3 1 3 5 5 6 5 5 3 5 7 5 4 8 15 15 11 8 7 6
11 2 2 1 4 2 3 6 8 7 2 5 3 5 5 6 6 5 8 7 7 9 8 5 4 0 2 1 4 3 3 3 4 1 2 5 4 4 6 11 11 9 8 7 7
4 2 1 2 1 3 1 5 5 4 3 3 8 8 8 6 8 9 7 3 5 1 2 4 2 3 3 3 3 3 5 3 2 2 5 5 5 5 6 11 9 8 7 6 5
4 4 1 4 3 2 4 6 6 4 4 4 4 2 2 1 5 4 4 1 4 3 5 4 4 4 5 4 7 2 2 2 3 5 5 2 7 0 6 11 10 6 7 8 6
4 4 3 2 4 3 7 8 5 5 3 3 3 3 4 2 1 5 7 2 2 7 6 4 5 3 8 4 3 5 6 6 4 5 3 1 9 4 7 9 9 8 8 8 7
5 4 1 2 6 7 4 5 6 5 6 7 8 7 6 7 4 7 5 2 4 4 6 4 1 3 11 4 4 1 0 3 2 3 5 4 9 4 6 7 8 8 7 6 6
3 5 1 2 1 3 6 7 7 6 5 5 4 4 4 5 4 3 4 3 3 4 5 3 3 8 9 5 3 3 6 1 4 2 3 11 12 20 18 4 6 8 8 7 8
2 4 5 7 9 10 3 5 10 7 5 7 4 8 7 6 4 6 3 4 4 7 3 4 4 3 4 0 3 5 10 13 6 12 9 20 18 19 15 4 3 5 6 7 7
4 4 1 0 5 14 9 6 7 9 9 6 5 7 7 7 7 5 6 3 4 1 4 2 2 3 5 4 5 10 18 12 16 16 17 19 22 15 2 4 4 6 6 5 5
1 2 3 3 6 8 7 9 8 6 4 2 9 5 5 4 4 5 5 5 4 6 4 6 6 4 8 1 5 9 14 17 11 12 7 9 9 2 5 4 5 4 3 4 5
Wind_Direction
38 25 15 10 4 357 353 353 347 342 338 334 332 331 331 331 311 187 243 207 190 169 154 136 238 263 351 284 50 57 59 258 258 33 330 350 34 346 337 271 329 227 211 242 144
355 355 355 351 347 343 338 338 336 329 327 326 326 327 331 336 296 253 276 110 136 149 126 153 178 184 352 217 151 101 121 235 174 129 323 299 84 313 357 315 292 307 296 153 148
324 328 331 332 332 329 328 325 317 314 319 321 321 324 327 327 330 282 330 204 167 173 14 207 304 160 205 145 212 189 198 216 299 330 3 294 314 325 315 292 249 262 268 304 195
303 311 317 319 322 322 321 317 313 309 312 314 316 321 324 310 296 13 320 174 161 162 325 239 216 150 217 224 219 202 232 239 263 307 316 266 276 297 205 252 248 258 259 275 290
289 295 301 305 308 312 313 311 308 307 304 303 303 315 325 348 257 77 80 98 105 117 242 206 197 180 257 263 356 224 248 283 311 302 273 289 253 249 270 263 273 275 279 271 279
276 283 290 297 302 309 312 310 311 308 303 297 286 279 172 226 132 144 127 135 144 162 256 212 214 175 249 240 188 326 325 290 279 268 270 252 279 154 274 293 307 304 284 289 294
260 267 280 296 305 307 309 309 311 310 302 283 251 221 185 233 104 131 150 167 140 195 221 4 299 116 42 332 306 328 332 316 266 261 235 150 309 230 255 318 299 304 305 321 358
244 258 276 288 297 302 303 305 313 309 324 281 193 229 238 340 319 141 149 90 98 256 107 351 71 92 153 313 360 313 64 316 287 18 273 110 251 268 271 287 308 295 318 337 63
235 247 270 288 298 301 303 304 294 301 18 123 139 190 272 346 141 302 25 173 94 69 41 26 69 178 13 93 2 311 238 224 311 41 159 186 247 258 281 283 277 291 323 61 52
235 241 267 288 294 299 309 300 222 312 233 232 253 18 217 211 141 104 341 147 121 101 46 70 49 85 25 105 219 220 246 291 277 304 342 285 255 263 279 290 275 273 39 67 54
238 242 255 276 292 305 347 5 354 360 213 204 191 243 137 81 96 65 297 107 112 98 145 228 103 205 219 205 222 274 238 256 262 276 306 280 302 289 254 262 295 35 101 82 65
229 237 246 266 288 311 206 196 174 203 303 252 253 229 123 147 127 216 104 138 150 194 132 75 222 225 233 245 236 306 314 283 286 269 345 295 297 276 300 33 64 96 88 85 81
224 231 243 277 310 301 135 142 323 135 209 296 309 113 139 136 208 188 161 182 183 199 191 166 217 165 182 257 304 262 223 246 237 320 299 314 293 285 42 81 79 72 87 77 77
218 220 227 257 307 177 148 167 109 84 8 251 208 339 101 134 170 347 358 203 225 210 232 235 246 231 257 253 161 267 259 239 262 60 225 67 284 295 129 100 88 86 76 78 67
207 201 204 182 297 176 148 119 104 71 319 195 140 162 84 141 142 342 156 74 198 217 117 245 171 160 164 220 161 222 59 294 221 198 350 280 125 260 129 139 103 87 78 65 64
176 173 184 177 225 152 131 114 69 69 246 142 131 163 123 174 130 134 159 348 159 333 227 235 232 161 203 220 184 114 30 299 73 119 303 238 178 281 182 182 136 105 89 83 67
154 158 164 257 179 152 133 105 146 210 239 176 171 157 196 172 176 163 160 190 166 131 242 281 202 206 158 102 29 78 69 323 2 16 226 300 183 247 333 111 137 122 105 96 92
136 133 147 307 129 146 123 126 206 201 242 137 128 164 179 155 203 183 178 229 242 162 159 210 319 148 169 159 186 183 166 162 234 224 267 328 257 301 73 89 99 101 112 104 88
119 74 83 347 77 95 176 202 192 207 177 146 121 156 213 216 174 147 202 197 208 180 175 166 240 206 66 116 134 200 183 173 101 346 47 235 271 83 100 101 110 121 123 126 120
104 96 135 221 132 61 184 205 226 196 109 91 190 181 193 213 164 173 201 195 154 67 205 200 312 220 178 134 33 148 171 67 19 209 241 276 262 219 184 150 149 152 140 133 118
77 95 209 181 156 115 202 223 244 248 146 174 226 245 204 142 171 199 219 186 136 116 90 135 119 259 124 175 184 63 219 137 144 177 199 240 262 120 123 164 163 155 162 169 159
138 134 180 205 143 198 208 189 217 180 128 175 156 184 182 106 287 215 209 150 100 139 146 197 154 226 235 240 174 185 226 185 209 242 253 238 259 134 131 140 146 185 189 183 166
130 118 355 139 182 210 225 196 206 170 177 175 200 190 172 188 227 204 188 328 82 87 151 169 182 24 331 20 29 77 174 126 119 98 214 219 260 172 118 160 202 187 188 168 159
115 135 351 187 167 197 196 204 198 189 180 184 191 167 162 198 212 193 129 181 53 100 124 80 162 168 207 170 116 286 291 272 125 180 229 244 282 285 294 220 254 227 176 171 168
40 204 172 189 210 211 185 212 188 178 193 171 206 188 168 208 215 211 157 107 82 159 100 132 199 216 257 2 125 206 256 273 213 241 221 267 267 269 292 313 179 152 158 175 191
175 167 80 119 144 190 207 212 192 194 160 198 187 176 182 196 191 192 127 148 171 194 134 138 227 95 301 208 247 261 260 261 255 259 253 254 264 277 206 224 190 181 176 149 143
242 3 97 197 165 168 218 200 195 156 47 130 188 172 139 138 98 96 92 102 128 154 149 152 135 87 264 197 57 309 248 243 233 231 238 245 254 215 267 227 151 164 190 221 224